Weather History for Highgate, VT

Change the Weather History Date:

Saturday, January 19, 2013

  Actual Average (KPBG) Record (KPBG)
Temperature  
Mean Temperature 28 °F 16 °F  
Max Temperature 38 °F 27 °F 53 °F (1949)
Min Temperature 17 °F 5 °F -25 °F (1976)
Degree Days  
Heating Degree Days 38 49  
Month to date heating degree days 906  
Since 1 July heating degree days 3792  
Moisture  
Dew Point 18 °F    
Average Humidity 65    
Maximum Humidity 88    
Minimum Humidity 52    
Precipitation  
Precipitation 0.00 in - 0.30 in (1960)
Month to date precipitation  
Year to date precipitation  
Sea Level Pressure  
Sea Level Pressure 29.92 in    
Wind  
Wind Speed 9 mph (South)    
Max Wind Speed 14 mph    
Max Gust Speed 25 mph    
Visibility 7 miles    
Events Snow    
T = Trace of Precipitation, MM = Missing Value Source: NWS Daily Summary

Daily Weather History Graph

Daily Weather History Graph

Search for Another Location

Airport:

Trip Planner

Search our weather history database for the weather conditions in past years. The results will help you decide how hot, cold, wet, or windy it might be!

Date:

Astronomy

Jan. 19, 2013 Rise Set
Actual Time 7:24 AM EST 4:42 PM EST
Civil Twilight 6:51 AM EST 5:15 PM EST
Nautical Twilight 6:15 AM EST 5:51 PM EST
Astronomical Twilight 5:40 AM EST 6:26 PM EST
Moon 11:10 AM EST (1/19) 12:51 AM EST (1/19)
Length of Visible Light 10h 23m
Length of Day
9h 18m
First Quarter, 57% of the Moon is Illuminated
Jan 19
First Quarter
Jan 26
Full
Feb 3
Last Quarter
Feb 10
New
Feb 17
First Quarter

Hourly Weather History & Observations

Time (EST) Temp. Windchill Dew Point Humidity Pressure Visibility Wind Dir Wind Speed Gust Speed Precip Events Conditions
12:15 AM 19.0 °F 6.8 °F 6.4 °F 58% 30.18 in 10.0 mi South 11.5 mph 18.4 mph N/A   Overcast
12:35 AM 18.1 °F 7.1 °F 10.2 °F 71% 30.17 in 2.0 mi South 9.2 mph - N/A Snow Light Snow
12:55 AM 17.2 °F 4.5 °F 12.0 °F 80% 30.15 in 1.5 mi South 11.5 mph 19.6 mph N/A Snow Light Snow
1:15 AM 17.1 °F 3.6 °F 13.1 °F 84% 30.14 in 1.2 mi South 12.7 mph 18.4 mph N/A Snow Light Snow
1:35 AM 17.1 °F 6.6 °F 13.1 °F 84% 30.13 in 2.0 mi South 8.1 mph - N/A Snow Light Snow
2:15 AM 18.3 °F 6.6 °F 13.8 °F 83% 30.11 in 3.0 mi South 10.4 mph 18.4 mph N/A Snow Light Snow
2:35 AM 18.3 °F 5.9 °F 14.2 °F 84% 30.10 in 1.8 mi South 11.5 mph 18.4 mph N/A Snow Light Snow
2:55 AM 18.3 °F 6.6 °F 14.5 °F 85% 30.09 in 2.0 mi South 10.4 mph 20.7 mph N/A Snow Light Snow
3:15 AM 18.9 °F 5.9 °F 14.5 °F 83% 30.07 in 1.5 mi South 12.7 mph 18.4 mph N/A Snow Light Snow
3:35 AM 19.4 °F 6.0 °F 15.6 °F 85% 30.07 in 1.2 mi South 13.8 mph 21.9 mph N/A Snow Light Snow
3:55 AM 19.4 °F 7.9 °F 15.8 °F 86% 30.05 in 1.0 mi South 10.4 mph 18.4 mph N/A Snow Snow
4:15 AM 19.4 °F 7.9 °F 16.3 °F 88% 30.04 in 1.0 mi South 10.4 mph 18.4 mph N/A Snow Light Snow
4:35 AM 19.6 °F 7.4 °F 16.5 °F 88% 30.02 in 1.2 mi South 11.5 mph 25.3 mph N/A Snow Light Snow
4:55 AM 20.1 °F 7.5 °F 16.7 °F 87% 30.02 in 2.0 mi South 12.7 mph 23.0 mph N/A Snow Light Snow
5:15 AM 20.3 °F 9.0 °F 16.9 °F 87% 30.01 in 1.8 mi South 10.4 mph 20.7 mph N/A Snow Light Snow
5:35 AM 20.8 °F 9.0 °F 17.4 °F 87% 30.00 in 1.8 mi South 11.5 mph 17.3 mph N/A Snow Light Snow
5:55 AM 21.9 °F 11.7 °F 18.7 °F 87% 30.00 in 2.0 mi South 9.2 mph 19.6 mph N/A Snow Light Snow
6:15 AM 22.1 °F 11.3 °F 18.9 °F 87% 29.99 in 3.0 mi South 10.4 mph 17.3 mph N/A Snow Light Snow
6:35 AM 22.1 °F 10.6 °F 18.5 °F 86% 29.98 in 1.8 mi South 11.5 mph 18.4 mph N/A Snow Light Snow
6:55 AM 22.1 °F 10.0 °F 18.5 °F 86% 29.97 in 2.0 mi South 12.7 mph 21.9 mph N/A Snow Light Snow
8:15 AM 24.6 °F 14.4 °F 19.4 °F 81% 29.96 in 1.5 mi South 10.4 mph 20.7 mph N/A Snow Light Snow
8:55 AM 24.6 °F 15.8 °F 18.5 °F 78% 29.96 in 1.5 mi South 8.1 mph 20.7 mph N/A Snow Light Snow
9:15 AM 27.0 °F 16.7 °F 19.4 °F 73% 29.95 in 2.5 mi South 11.5 mph 19.6 mph N/A Snow Light Snow
9:35 AM 27.1 °F 18.2 °F 15.4 °F 61% 29.95 in 10.0 mi South 9.2 mph 16.1 mph N/A   Overcast
9:55 AM 27.3 °F 17.7 °F 14.0 °F 57% 29.94 in 10.0 mi South 10.4 mph 16.1 mph N/A   Overcast
10:35 AM 28.6 °F 19.3 °F 13.8 °F 54% 29.93 in 10.0 mi South 10.4 mph - N/A   Overcast
10:55 AM 29.7 °F 22.0 °F 14.5 °F 53% 29.92 in 10.0 mi SSW 8.1 mph 17.3 mph N/A   Overcast
11:15 AM 29.7 °F 20.1 °F 14.5 °F 53% 29.91 in 10.0 mi SSW 11.5 mph 16.1 mph N/A   Overcast
11:35 AM 29.7 °F 21.3 °F 14.7 °F 54% 29.90 in 10.0 mi South 9.2 mph 16.1 mph N/A   Overcast
12:15 PM 31.8 °F 23.3 °F 16.7 °F 54% 29.88 in 10.0 mi South 10.4 mph - N/A   Overcast
1:15 PM 32.0 °F 25.6 °F 16.5 °F 53% 29.87 in 10.0 mi South 6.9 mph - N/A   Overcast
1:55 PM 32.0 °F 26.4 °F 16.7 °F 53% 29.86 in 10.0 mi South 5.8 mph - N/A   Overcast
2:15 PM 32.0 °F 26.4 °F 17.2 °F 55% 29.86 in 10.0 mi South 5.8 mph - N/A   Overcast
2:55 PM 34.3 °F 28.4 °F 19.2 °F 54% 29.87 in 10.0 mi South 6.9 mph - N/A   Overcast
3:35 PM 34.3 °F 28.4 °F 19.4 °F 54% 29.86 in 10.0 mi South 6.9 mph - N/A   Overcast
3:55 PM 34.3 °F 28.4 °F 19.4 °F 54% 29.86 in 10.0 mi South 6.9 mph - N/A   Overcast
4:15 PM 34.3 °F 28.4 °F 19.4 °F 54% 29.86 in 10.0 mi South 6.9 mph - N/A   Overcast
4:35 PM 34.3 °F 27.0 °F 19.4 °F 54% 29.86 in 10.0 mi South 9.2 mph - N/A   Overcast
4:55 PM 34.3 °F 26.5 °F 19.4 °F 54% 29.86 in 10.0 mi South 10.4 mph - N/A   Overcast
5:15 PM 34.3 °F 29.2 °F 19.6 °F 55% 29.85 in 10.0 mi South 5.8 mph - N/A   Overcast
5:35 PM 34.5 °F 29.4 °F 19.8 °F 55% 29.85 in 10.0 mi South 5.8 mph - N/A   Overcast
5:55 PM 36.1 °F 30.6 °F 21.0 °F 54% 29.84 in 10.0 mi South 6.9 mph - N/A   Overcast
6:15 PM 36.9 °F 31.4 °F 21.2 °F 53% 29.84 in 10.0 mi South 6.9 mph - N/A   Overcast
6:35 PM 36.7 °F 31.2 °F 21.6 °F 54% 29.84 in 10.0 mi South 6.9 mph - N/A   Overcast
6:55 PM 36.9 °F 31.4 °F 21.6 °F 54% 29.84 in 10.0 mi South 6.9 mph - N/A   Overcast
7:15 PM 36.9 °F 32.2 °F 21.6 °F 54% 29.83 in 10.0 mi South 5.8 mph - N/A   Overcast
7:35 PM 36.9 °F 32.2 °F 21.4 °F 54% 29.83 in 10.0 mi South 5.8 mph - N/A   Overcast
7:55 PM 36.9 °F 33.1 °F 21.2 °F 53% 29.83 in 10.0 mi South 4.6 mph - N/A   Overcast
8:15 PM 36.9 °F 34.3 °F 21.2 °F 53% 29.82 in 10.0 mi South 3.5 mph - N/A   Overcast
8:35 PM 36.9 °F 34.3 °F 20.8 °F 52% 29.81 in 10.0 mi SSW 3.5 mph - N/A   Overcast
9:15 PM 37.0 °F 34.5 °F 20.7 °F 52% 29.78 in 10.0 mi SSW 3.5 mph - N/A   Overcast
9:35 PM 36.9 °F - 21.0 °F 53% 29.77 in 10.0 mi Calm Calm - N/A   Overcast
9:55 PM 36.9 °F 34.3 °F 21.4 °F 54% 29.75 in 10.0 mi South 3.5 mph - N/A   Overcast
10:15 PM 36.9 °F 31.4 °F 22.1 °F 55% 29.73 in 10.0 mi SSE 6.9 mph - N/A   Overcast
10:35 PM 37.9 °F 34.4 °F 21.7 °F 52% 29.73 in 10.0 mi South 4.6 mph - N/A   Overcast
10:55 PM 38.1 °F 34.6 °F 21.7 °F 52% 29.71 in 10.0 mi South 4.6 mph - N/A   Overcast
11:15 PM 38.3 °F 33.9 °F 21.9 °F 52% 29.70 in 10.0 mi SSW 5.8 mph - N/A   Overcast
11:35 PM 38.1 °F 35.7 °F 22.1 °F 53% 29.69 in 10.0 mi SSW 3.5 mph - N/A   Overcast
11:55 PM 38.5 °F 30.7 °F 23.2 °F 54% 29.68 in 10.0 mi South 12.7 mph 16.1 mph N/A   Overcast